Terug naar catalogus

GEN1A-1

ActiefWetenschapSSO
NORAD 69004·PAYLOAD·🇺🇸 United States

Gelanceerd May 3, 2026 vanaf Vandenberg Space Force Base

Loading…

Volgende Passages (komende 24 uur)

TLE

VersSource: Space-Track

Epoch: Sep 14, 2026, 16:08 UTC

1 69004U 26100AA  26257.67241922  .00002641  00000-0  12361-3 0  9992
2 69004  97.3915 153.8121 0005961  69.3334 290.8540 15.20589273 20412

Volg GEN1A-1 in realtime met AllMySat

Download on the App Store